| time (UTC) | temp F | wind direction | speed MPH | gust MPH | rain 1hr in | rain 24hr in | rain mn in | humidity % | barometer mb |
| 20260906231544 | 89 | 255 | 0.0 | 2.0 | 0.00 | 0.00 | 0.00 | 50 | 1008.1 |
| 20260906231043 | 89 | 255 | 0.0 | 2.0 | 0.00 | 0.00 | 0.00 | 50 | 1008.0 |
| 20260906230543 | 89 | 255 | 0.0 | 3.0 | 0.00 | 0.00 | 0.00 | 50 | 1008.0 |
| 20260906230044 | 89 | 255 | 1.0 | 3.0 | 0.00 | 0.00 | 0.00 | 51 | 1008.0 |
| 20260906225541 | 89 | 256 | 0.0 | 0.0 | 0.00 | 0.00 | 0.00 | 51 | 1008.0 |
| 20260906225041 | 88 | 256 | 0.0 | 3.0 | 0.00 | 0.00 | 0.00 | 54 | 1008.2 |
| 20260906224540 | 88 | 256 | 0.0 | 3.0 | 0.00 | 0.00 | 0.00 | 54 | 1008.3 |
| 20260906224043 | 86 | 256 | 2.0 | 4.0 | 0.00 | 0.00 | 0.00 | 57 | 1008.3 |
| 20260906223045 | 86 | 257 | 1.0 | 6.0 | 0.00 | 0.00 | 0.00 | 58 | 1008.6 |
| 20260906222541 | 85 | 257 | 3.0 | 6.0 | 0.00 | 0.00 | 0.00 | 59 | 1008.7 |
| 20260906222040 | 85 | 227 | 2.0 | 8.0 | 0.00 | 0.00 | 0.00 | 60 | 1008.9 |
| 20260906221542 | 84 | 281 | 2.0 | 8.0 | 0.00 | 0.00 | 0.00 | 62 | 1009.0 |
| 20260906221040 | 84 | 232 | 2.0 | 7.0 | 0.00 | 0.00 | 0.00 | 64 | 1009.1 |
| 20260906220540 | 84 | 229 | 3.0 | 10.0 | 0.00 | 0.00 | 0.00 | 65 | 1009.1 |
| 20260906220040 | 84 | 232 | 5.0 | 12.0 | 0.00 | 0.00 | 0.00 | 66 | 1009.4 |
| 20260906215539 | 84 | 221 | 6.0 | 14.0 | 0.00 | 0.00 | 0.00 | 65 | 1009.7 |
| 20260906215039 | 84 | 261 | 5.0 | 14.0 | 0.00 | 0.00 | 0.00 | 63 | 1009.8 |
| 20260906214540 | 85 | 231 | 6.0 | 14.0 | 0.00 | 0.00 | 0.00 | 60 | 1009.9 |
| 20260906214038 | 85 | 242 | 1.0 | 8.0 | 0.00 | 0.00 | 0.00 | 60 | 1009.8 |
| 20260906213036 | 84 | 223 | 4.0 | 10.0 | 0.00 | 0.00 | 0.00 | 59 | 1009.6 |
| 20260906212538 | 84 | 217 | 6.0 | 10.0 | 0.00 | 0.00 | 0.00 | 58 | 1009.6 |
| 20260906212036 | 84 | 218 | 5.0 | 12.0 | 0.00 | 0.00 | 0.00 | 58 | 1009.7 |
| 20260906211542 | 84 | 180 | 7.0 | 13.0 | 0.00 | 0.00 | 0.00 | 59 | 1009.7 |
| 20260906211037 | 83 | 187 | 7.0 | 21.0 | 0.00 | 0.00 | 0.00 | 60 | 1009.9 |
| 20260906210536 | 83 | 178 | 12.0 | 23.0 | 0.00 | 0.00 | 0.00 | 62 | 1010.0 |
| 20260906210042 | 82 | 146 | 14.0 | 21.0 | 0.00 | 0.00 | 0.00 | 65 | 1009.8 |
| 20260906205536 | 81 | 167 | 15.0 | 28.0 | 0.00 | 0.00 | 0.00 | 68 | 1009.9 |
| 20260906205035 | 81 | 150 | 18.0 | 33.0 | 0.00 | 0.00 | 0.00 | 68 | 1010.0 |
| 20260906204539 | 82 | 152 | 23.0 | 33.0 | 0.00 | 0.00 | 0.00 | 66 | 1010.1 |
| 20260906204038 | 84 | 132 | 22.0 | 31.0 | 0.00 | 0.00 | 0.00 | 62 | 1010.0 |
| 20260906203035 | 90 | 144 | 19.0 | 29.0 | 0.00 | 0.00 | 0.00 | 53 | 1009.9 |
| 20260906202539 | 90 | 128 | 15.0 | 28.0 | 0.00 | 0.00 | 0.00 | 51 | 1009.9 |
| 20260906202035 | 91 | 98 | 19.0 | 28.0 | 0.00 | 0.00 | 0.00 | 50 | 1009.6 |
| 20260906201535 | 90 | 98 | 13.0 | 22.0 | 0.00 | 0.00 | 0.00 | 49 | 1009.7 |
| 20260906201033 | 90 | 85 | 13.0 | 19.0 | 0.00 | 0.00 | 0.00 | 47 | 1009.6 |
| 20260906200534 | 92 | 73 | 8.0 | 19.0 | 0.00 | 0.00 | 0.00 | 46 | 1009.5 |
| 20260906200042 | 95 | 73 | 11.0 | 19.0 | 0.00 | 0.00 | 0.00 | 42 | 1009.5 |
| 20260906195533 | 95 | 9 | 6.0 | 11.0 | 0.00 | 0.00 | 0.00 | 41 | 1009.3 |
| 20260906195033 | 96 | 328 | 5.0 | 10.0 | 0.00 | 0.00 | 0.00 | 40 | 1009.2 |
| 20260906194533 | 96 | 327 | 3.0 | 10.0 | 0.00 | 0.00 | 0.00 | 43 | 1009.0 |
| 20260906194033 | 96 | 312 | 8.0 | 12.0 | 0.00 | 0.00 | 0.00 | 39 | 1008.9 |
| 20260906193053 | 98 | 281 | 2.0 | 8.0 | 0.00 | 0.00 | 0.00 | 36 | 1008.9 |
| 20260906192533 | 98 | 316 | 3.0 | 8.0 | 0.00 | 0.00 | 0.00 | 36 | 1009.0 |
| 20260906192032 | 97 | 316 | 3.0 | 8.0 | 0.00 | 0.00 | 0.00 | 37 | 1009.1 |
| 20260906191538 | 97 | 309 | 3.0 | 9.0 | 0.00 | 0.00 | 0.00 | 38 | 1009.2 |
| 20260906191033 | 96 | 265 | 4.0 | 9.0 | 0.00 | 0.00 | 0.00 | 39 | 1009.2 |
| 20260906190532 | 96 | 284 | 5.0 | 10.0 | 0.00 | 0.00 | 0.00 | 39 | 1009.1 |
| 20260906190032 | 95 | 276 | 5.0 | 10.0 | 0.00 | 0.00 | 0.00 | 40 | 1009.1 |
| 20260906185530 | 95 | 302 | 6.0 | 10.0 | 0.00 | 0.00 | 0.00 | 41 | 1009.2 |
| 20260906185030 | 94 | 296 | 6.0 | 12.0 | 0.00 | 0.00 | 0.00 | 43 | 1009.3 |
| 20260906184533 | 93 | 310 | 6.0 | 12.0 | 0.00 | 0.00 | 0.00 | 45 | 1009.4 |
| 20260906184029 | 92 | 319 | 5.0 | 10.0 | 0.00 | 0.00 | 0.00 | 46 | 1009.4 |
| 20260906183030 | 90 | 284 | 6.0 | 14.0 | 0.00 | 0.00 | 0.00 | 49 | 1009.6 |
| 20260906182534 | 90 | 306 | 8.0 | 14.0 | 0.00 | 0.00 | 0.00 | 49 | 1009.6 |
| 20260906182030 | 90 | 309 | 8.0 | 14.0 | 0.00 | 0.00 | 0.00 | 46 | 1009.7 |
| 20260906181547 | 91 | 316 | 9.0 | 14.0 | 0.00 | 0.00 | 0.00 | 44 | 1009.9 |
| 20260906181029 | 92 | 312 | 7.0 | 14.0 | 0.00 | 0.00 | 0.00 | 42 | 1009.9 |
| 20260906180529 | 95 | 319 | 6.0 | 19.0 | 0.00 | 0.00 | 0.00 | 43 | 1010.0 |
| 20260906180034 | 99 | 297 | 11.0 | 19.0 | 0.00 | 0.00 | 0.00 | 38 | 1010.1 |
| 20260906175527 | 99 | 132 | 3.0 | 11.0 | 0.00 | 0.00 | 0.00 | 35 | 1009.9 |
| 20260906175030 | 99 | 44 | 5.0 | 11.0 | 0.00 | 0.00 | 0.00 | 35 | 1009.8 |
| 20260906174527 | 99 | 97 | 4.0 | 8.0 | 0.00 | 0.00 | 0.00 | 35 | 1009.9 |
| 20260906174029 | 99 | 104 | 3.0 | 9.0 | 0.00 | 0.00 | 0.00 | 37 | 1010.0 |
| 20260906173026 | 99 | 61 | 6.0 | 12.0 | 0.00 | 0.00 | 0.00 | 37 | 1010.3 |
| 20260906172526 | 99 | 42 | 3.0 | 12.0 | 0.00 | 0.00 | 0.00 | 37 | 1010.4 |
| 20260906172025 | 98 | 307 | 3.0 | 8.0 | 0.00 | 0.00 | 0.00 | 36 | 1010.5 |
| 20260906171525 | 98 | 20 | 4.0 | 9.0 | 0.00 | 0.00 | 0.00 | 37 | 1010.6 |
| 20260906171026 | 98 | 77 | 3.0 | 9.0 | 0.00 | 0.00 | 0.00 | 39 | 1010.7 |
| 20260906170524 | 98 | 94 | 3.0 | 8.0 | 0.00 | 0.00 | 0.00 | 39 | 1010.8 |
| 20260906170023 | 98 | 300 | 2.0 | 5.0 | 0.00 | 0.00 | 0.00 | 40 | 1010.8 |
| 20260906165523 | 98 | 350 | 0.0 | 8.0 | 0.00 | 0.00 | 0.00 | 40 | 1010.9 |
| 20260906165024 | 97 | 15 | 2.0 | 8.0 | 0.00 | 0.00 | 0.00 | 40 | 1011.0 |
| 20260906164523 | 97 | 317 | 2.0 | 6.0 | 0.00 | 0.00 | 0.00 | 41 | 1011.1 |
| 20260906164022 | 96 | 11 | 1.0 | 5.0 | 0.00 | 0.00 | 0.00 | 42 | 1011.1 |
| 20260906163019 | 96 | 281 | 3.0 | 5.0 | 0.00 | 0.00 | 0.00 | 43 | 1011.2 |
| 20260906162519 | 95 | 296 | 2.0 | 7.0 | 0.00 | 0.00 | 0.00 | 43 | 1011.2 |
| 20260906162018 | 96 | 297 | 2.0 | 8.0 | 0.00 | 0.00 | 0.00 | 42 | 1011.3 |
| 20260906161518 | 96 | 313 | 4.0 | 8.0 | 0.00 | 0.00 | 0.00 | 42 | 1011.2 |
| 20260906161017 | 95 | 5 | 3.0 | 6.0 | 0.00 | 0.00 | 0.00 | 43 | 1011.2 |
| 20260906160516 | 95 | 360 | 3.0 | 6.0 | 0.00 | 0.00 | 0.00 | 44 | 1011.3 |
| 20260906160015 | 95 | 313 | 3.0 | 8.0 | 0.00 | 0.00 | 0.00 | 44 | 1011.3 |
| 20260906155514 | 95 | 329 | 3.0 | 8.0 | 0.00 | 0.00 | 0.00 | 45 | 1011.3 |
| 20260906155013 | 94 | 355 | 2.0 | 8.0 | 0.00 | 0.00 | 0.00 | 46 | 1011.3 |
| 20260906154529 | 93 | 300 | 4.0 | 9.0 | 0.00 | 0.00 | 0.00 | 47 | 1011.3 |
| 20260906154009 | 93 | 295 | 3.0 | 9.0 | 0.00 | 0.00 | 0.00 | 48 | 1011.5 |
| 20260906153015 | 92 | 292 | 4.0 | 9.0 | 0.00 | 0.00 | 0.00 | 48 | 1011.4 |
| 20260906152512 | 93 | 290 | 6.0 | 10.0 | 0.00 | 0.00 | 0.00 | 48 | 1011.4 |
| 20260906152007 | 92 | 331 | 5.0 | 10.0 | 0.00 | 0.00 | 0.00 | 49 | 1011.4 |
| 20260906151505 | 92 | 299 | 3.0 | 7.0 | 0.00 | 0.00 | 0.00 | 50 | 1011.3 |
| 20260906151004 | 91 | 290 | 3.0 | 7.0 | 0.00 | 0.00 | 0.00 | 51 | 1011.3 |
| 20260906150502 | 91 | 329 | 4.0 | 6.0 | 0.00 | 0.00 | 0.00 | 51 | 1011.4 |
| 20260906150004 | 90 | 296 | 3.0 | 7.0 | 0.00 | 0.00 | 0.00 | 52 | 1011.3 |
| 20260906145600 | 90 | 304 | 2.0 | 9.0 | 0.00 | 0.00 | 0.00 | 53 | 1011.3 |
| 20260906145059 | 90 | 274 | 4.0 | 9.0 | 0.00 | 0.00 | 0.00 | 52 | 1011.3 |
| 20260906144612 | 89 | 296 | 2.0 | 6.0 | 0.00 | 0.00 | 0.00 | 53 | 1011.3 |
| 20260906144057 | 89 | 302 | 2.0 | 5.0 | 0.00 | 0.00 | 0.00 | 54 | 1011.2 |
| 20260906143108 | 88 | 286 | 0.0 | 5.0 | 0.00 | 0.00 | 0.00 | 55 | 1011.3 |
| 20260906142555 | 88 | 276 | 2.0 | 6.0 | 0.00 | 0.00 | 0.00 | 56 | 1011.2 |
| 20260906142054 | 87 | 254 | 1.0 | 5.0 | 0.00 | 0.00 | 0.00 | 56 | 1011.3 |
| 20260906141553 | 87 | 283 | 3.0 | 5.0 | 0.00 | 0.00 | 0.00 | 56 | 1011.4 |
| 20260906141053 | 87 | 275 | 3.0 | 6.0 | 0.00 | 0.00 | 0.00 | 57 | 1011.4 |
| 20260906140552 | 86 | 252 | 1.0 | 4.0 | 0.00 | 0.00 | 0.00 | 58 | 1011.4 |
| 20260906140049 | 86 | 182 | 1.0 | 4.0 | 0.00 | 0.00 | 0.00 | 59 | 1011.3 |
| 20260906135548 | 85 | 182 | 1.0 | 4.0 | 0.00 | 0.00 | 0.00 | 60 | 1011.4 |
| 20260906135048 | 84 | 168 | 2.0 | 4.0 | 0.00 | 0.00 | 0.00 | 61 | 1011.3 |
| 20260906134551 | 84 | 166 | 1.0 | 3.0 | 0.00 | 0.00 | 0.00 | 63 | 1011.3 |
| 20260906134044 | 83 | 166 | 0.0 | 2.0 | 0.00 | 0.00 | 0.00 | 64 | 1011.3 |
| 20260906133053 | 82 | 166 | 0.0 | 2.0 | 0.00 | 0.00 | 0.00 | 66 | 1011.3 |
| 20260906132543 | 81 | 166 | 0.0 | 0.0 | 0.00 | 0.00 | 0.00 | 68 | 1011.2 |
| 20260906132042 | 80 | 167 | 0.0 | 1.0 | 0.00 | 0.00 | 0.00 | 70 | 1011.2 |
| 20260906131541 | 80 | 167 | 0.0 | 1.0 | 0.00 | 0.00 | 0.00 | 72 | 1011.1 |
| 20260906131040 | 79 | 167 | 0.0 | 2.0 | 0.00 | 0.00 | 0.00 | 73 | 1011.1 |
| 20260906130540 | 78 | 167 | 0.0 | 2.0 | 0.00 | 0.00 | 0.00 | 74 | 1011.0 |
| 20260906130044 | 78 | 167 | 0.0 | 1.0 | 0.00 | 0.00 | 0.00 | 75 | 1011.0 |
| 20260906125539 | 77 | 167 | 0.0 | 1.0 | 0.00 | 0.00 | 0.00 | 76 | 1010.9 |
| 20260906125039 | 76 | 167 | 0.0 | 1.0 | 0.00 | 0.00 | 0.00 | 78 | 1011.0 |
| 20260906124542 | 76 | 167 | 0.0 | 0.0 | 0.00 | 0.00 | 0.00 | 80 | 1010.9 |
| 20260906124038 | 75 | 167 | 0.0 | 0.0 | 0.00 | 0.00 | 0.00 | 80 | 1010.8 |
| 20260906123039 | 74 | 167 | 0.0 | 0.0 | 0.00 | 0.00 | 0.00 | 81 | 1010.7 |
| 20260906122536 | 74 | 167 | 0.0 | 0.0 | 0.00 | 0.00 | 0.00 | 81 | 1010.7 |
| 20260906122036 | 73 | 167 | 0.0 | 1.0 | 0.00 | 0.00 | 0.00 | 81 | 1010.6 |
| 20260906121536 | 73 | 167 | 0.0 | 0.0 | 0.00 | 0.00 | 0.00 | 81 | 1010.6 |
| 20260906121036 | 73 | 167 | 0.0 | 0.0 | 0.00 | 0.00 | 0.00 | 81 | 1010.6 |
| 20260906120538 | 74 | 167 | 0.0 | 0.0 | 0.00 | 0.00 | 0.00 | 81 | 1010.6 |
| 20260906120041 | 73 | 167 | 0.0 | 0.0 | 0.00 | 0.00 | 0.00 | 81 | 1010.6 |
| 20260906115536 | 74 | 167 | 0.0 | 0.0 | 0.00 | 0.00 | 0.00 | 80 | 1010.6 |
| 20260906115035 | 74 | 167 | 0.0 | 0.0 | 0.00 | 0.00 | 0.00 | 80 | 1010.6 |
| 20260906114545 | 74 | 167 | 0.0 | 0.0 | 0.00 | 0.00 | 0.00 | 80 | 1010.6 |
| 20260906114033 | 74 | 167 | 0.0 | 1.0 | 0.00 | 0.00 | 0.00 | 78 | 1010.5 |
| 20260906113033 | 74 | 167 | 0.0 | 1.0 | 0.00 | 0.00 | 0.00 | 79 | 1010.5 |
| 20260906112532 | 74 | 167 | 0.0 | 0.0 | 0.00 | 0.00 | 0.00 | 79 | 1010.4 |
| 20260906112032 | 74 | 167 | 0.0 | 0.0 | 0.00 | 0.00 | 0.00 | 79 | 1010.3 |
| 20260906111536 | 74 | 167 | 0.0 | 0.0 | 0.00 | 0.00 | 0.00 | 79 | 1010.3 |
| 20260906111031 | 74 | 167 | 0.0 | 0.0 | 0.00 | 0.00 | 0.00 | 79 | 1010.2 |
| 20260906110535 | 74 | 167 | 0.0 | 0.0 | 0.00 | 0.00 | 0.00 | 79 | 1010.3 |
| 20260906110030 | 75 | 167 | 0.0 | 0.0 | 0.00 | 0.00 | 0.00 | 78 | 1010.2 |
| 20260906105529 | 75 | 167 | 0.0 | 0.0 | 0.00 | 0.00 | 0.00 | 78 | 1010.2 |
| 20260906105029 | 75 | 167 | 0.0 | 0.0 | 0.00 | 0.00 | 0.00 | 78 | 1010.1 |
| 20260906104534 | 75 | 167 | 0.0 | 0.0 | 0.00 | 0.00 | 0.00 | 78 | 1010.1 |
| 20260906104029 | 75 | 167 | 0.0 | 0.0 | 0.00 | 0.00 | 0.00 | 78 | 1010.1 |
| 20260906103028 | 75 | 167 | 0.0 | 0.0 | 0.00 | 0.00 | 0.00 | 78 | 1010.2 |
| 20260906102629 | 75 | 167 | 0.0 | 0.0 | 0.00 | 0.00 | 0.00 | 77 | 1010.2 |
| 20260906102027 | 75 | 167 | 0.0 | 0.0 | 0.00 | 0.00 | 0.00 | 77 | 1010.1 |
| 20260906101527 | 76 | 167 | 0.0 | 0.0 | 0.00 | 0.00 | 0.00 | 76 | 1010.2 |
| 20260906101027 | 76 | 167 | 0.0 | 0.0 | 0.00 | 0.00 | 0.00 | 76 | 1010.1 |
| 20260906100526 | 76 | 167 | 0.0 | 0.0 | 0.00 | 0.00 | 0.00 | 76 | 1010.1 |
| 20260906100032 | 76 | 167 | 0.0 | 0.0 | 0.00 | 0.00 | 0.00 | 76 | 1010.1 |
| 20260906095529 | 76 | 167 | 0.0 | 0.0 | 0.00 | 0.00 | 0.00 | 76 | 1010.1 |
| 20260906095025 | 76 | 167 | 0.0 | 2.0 | 0.00 | 0.00 | 0.00 | 76 | 1010.0 |
| 20260906094551 | 76 | 167 | 0.0 | 2.0 | 0.00 | 0.00 | 0.00 | 76 | 1009.9 |
| 20260906094030 | 76 | 165 | 0.0 | 2.0 | 0.00 | 0.00 | 0.00 | 76 | 1009.9 |
| 20260906093040 | 76 | 165 | 1.0 | 2.0 | 0.00 | 0.00 | 0.00 | 77 | 1009.8 |
| 20260906092527 | 76 | 165 | 1.0 | 2.0 | 0.00 | 0.00 | 0.00 | 77 | 1009.7 |
| 20260906092126 | 75 | 165 | 0.0 | 1.0 | 0.00 | 0.00 | 0.00 | 77 | 1009.8 |
| 20260906091525 | 75 | 165 | 0.0 | 2.0 | 0.00 | 0.00 | 0.00 | 77 | 1009.7 |
| 20260906091025 | 75 | 165 | 0.0 | 2.0 | 0.00 | 0.00 | 0.00 | 77 | 1009.7 |
| 20260906090524 | 75 | 165 | 1.0 | 3.0 | 0.00 | 0.00 | 0.00 | 76 | 1009.6 |
| 20260906090030 | 75 | 165 | 2.0 | 4.0 | 0.00 | 0.00 | 0.00 | 77 | 1009.6 |
| 20260906085527 | 75 | 165 | 0.0 | 1.0 | 0.00 | 0.00 | 0.00 | 76 | 1009.6 |
| 20260906085023 | 76 | 165 | 0.0 | 0.0 | 0.00 | 0.00 | 0.00 | 75 | 1009.5 |
| 20260906084523 | 76 | 165 | 0.0 | 0.0 | 0.00 | 0.00 | 0.00 | 75 | 1009.4 |
| 20260906084025 | 76 | 165 | 0.0 | 0.0 | 0.00 | 0.00 | 0.00 | 75 | 1009.3 |
| 20260906083035 | 76 | 165 | 0.0 | 0.0 | 0.00 | 0.00 | 0.00 | 75 | 1009.3 |
| 20260906082522 | 76 | 165 | 0.0 | 0.0 | 0.00 | 0.00 | 0.00 | 75 | 1009.3 |
| 20260906082024 | 76 | 165 | 0.0 | 0.0 | 0.00 | 0.00 | 0.00 | 75 | 1009.3 |
| 20260906081520 | 76 | 165 | 0.0 | 0.0 | 0.00 | 0.00 | 0.00 | 75 | 1009.3 |
| 20260906081019 | 76 | 165 | 0.0 | 0.0 | 0.00 | 0.00 | 0.00 | 74 | 1009.4 |
| 20260906080520 | 76 | 165 | 0.0 | 0.0 | 0.00 | 0.00 | 0.00 | 74 | 1009.3 |
| 20260906080018 | 76 | 165 | 0.0 | 0.0 | 0.00 | 0.00 | 0.00 | 74 | 1009.3 |
| 20260906075518 | 76 | 165 | 0.0 | 0.0 | 0.00 | 0.00 | 0.00 | 73 | 1009.3 |
| 20260906075018 | 76 | 165 | 0.0 | 0.0 | 0.00 | 0.00 | 0.00 | 73 | 1009.4 |
| 20260906074521 | 77 | 165 | 0.0 | 0.0 | 0.00 | 0.00 | 0.00 | 73 | 1009.4 |
| 20260906074016 | 77 | 165 | 0.0 | 0.0 | 0.00 | 0.00 | 0.00 | 71 | 1009.4 |
| 20260906073023 | 77 | 165 | 0.0 | 0.0 | 0.00 | 0.00 | 0.00 | 71 | 1009.6 |
| 20260906072516 | 77 | 165 | 0.0 | 0.0 | 0.00 | 0.00 | 0.00 | 71 | 1009.6 |
| 20260906072015 | 77 | 165 | 0.0 | 0.0 | 0.00 | 0.00 | 0.00 | 71 | 1009.5 |
| 20260906071514 | 77 | 165 | 0.0 | 0.0 | 0.00 | 0.00 | 0.00 | 71 | 1009.6 |
| 20260906071014 | 77 | 165 | 0.0 | 0.0 | 0.00 | 0.00 | 0.00 | 71 | 1009.5 |
| 20260906070516 | 78 | 165 | 0.0 | 0.0 | 0.00 | 0.00 | 0.00 | 70 | 1009.5 |
| 20260906070013 | 78 | 165 | 0.0 | 0.0 | 0.00 | 0.00 | 0.00 | 69 | 1009.6 |
| 20260906065513 | 78 | 165 | 0.0 | 0.0 | 0.00 | 0.00 | 0.00 | 69 | 1009.6 |
| 20260906065012 | 78 | 165 | 0.0 | 0.0 | 0.00 | 0.00 | 0.00 | 68 | 1009.5 |
| 20260906064512 | 78 | 165 | 0.0 | 0.0 | 0.00 | 0.00 | 0.00 | 68 | 1009.6 |
| 20260906064012 | 78 | 165 | 0.0 | 0.0 | 0.00 | 0.00 | 0.00 | 68 | 1009.6 |
| 20260906063015 | 78 | 165 | 0.0 | 0.0 | 0.00 | 0.00 | 0.00 | 68 | 1009.7 |
| 20260906062514 | 78 | 165 | 0.0 | 0.0 | 0.00 | 0.00 | 0.00 | 69 | 1009.7 |
| 20260906062011 | 78 | 165 | 0.0 | 0.0 | 0.00 | 0.00 | 0.00 | 69 | 1009.7 |
| 20260906061511 | 78 | 165 | 0.0 | 1.0 | 0.00 | 0.00 | 0.00 | 70 | 1009.7 |
| 20260906061009 | 78 | 165 | 0.0 | 1.0 | 0.00 | 0.00 | 0.00 | 68 | 1009.6 |
| 20260906060510 | 79 | 165 | 0.0 | 1.0 | 0.00 | 0.00 | 0.00 | 68 | 1009.5 |
| 20260906060008 | 79 | 165 | 0.0 | 0.0 | 0.00 | 0.00 | 0.00 | 67 | 1009.6 |
| 20260906055507 | 79 | 165 | 0.0 | 0.0 | 0.00 | 0.00 | 0.00 | 67 | 1009.7 |
| 20260906055006 | 80 | 165 | 0.0 | 0.0 | 0.00 | 0.00 | 0.00 | 66 | 1009.6 |
| 20260906054505 | 80 | 165 | 0.0 | 0.0 | 0.00 | 0.00 | 0.00 | 65 | 1009.6 |
| 20260906054004 | 80 | 165 | 0.0 | 0.0 | 0.00 | 0.00 | 0.00 | 64 | 1009.6 |
| 20260906053002 | 81 | 165 | 0.0 | 0.0 | 0.00 | 0.00 | 0.00 | 63 | 1009.6 |
| 20260906052502 | 81 | 165 | 0.0 | 0.0 | 0.00 | 0.00 | 0.00 | 63 | 1009.5 |
| 20260906052001 | 81 | 165 | 0.0 | 0.0 | 0.00 | 0.00 | 0.00 | 63 | 1009.6 |
| 20260906051500 | 81 | 165 | 0.0 | 0.0 | 0.00 | 0.00 | 0.00 | 63 | 1009.5 |
| 20260906051100 | 81 | 165 | 0.0 | 0.0 | 0.00 | 0.00 | 0.00 | 63 | 1009.4 |
| 20260906050559 | 81 | 165 | 0.0 | 0.0 | 0.00 | 0.00 | 0.00 | 63 | 1009.4 |
| 20260906050106 | 81 | 165 | 0.0 | 0.0 | 0.00 | 0.00 | 0.00 | 62 | 1009.4 |
| 20260906045559 | 81 | 165 | 0.0 | 2.0 | 0.00 | 0.00 | 0.00 | 62 | 1009.4 |
| 20260906045058 | 81 | 165 | 0.0 | 2.0 | 0.00 | 0.00 | 0.00 | 62 | 1009.4 |
| 20260906044602 | 81 | 165 | 0.0 | 2.0 | 0.00 | 0.00 | 0.00 | 63 | 1009.3 |
| 20260906044057 | 81 | 165 | 0.0 | 2.0 | 0.00 | 0.00 | 0.00 | 63 | 1009.3 |
| 20260906043657 | 82 | 165 | 1.0 | 2.0 | 0.00 | 0.00 | 0.00 | 63 | 1009.4 |
| 20260906043058 | 82 | 165 | 0.0 | 1.0 | 0.00 | 0.00 | 0.00 | 63 | 1009.4 |
| 20260906042557 | 82 | 165 | 0.0 | 1.0 | 0.00 | 0.00 | 0.00 | 63 | 1009.4 |
| 20260906042056 | 82 | 165 | 0.0 | 1.0 | 0.00 | 0.00 | 0.00 | 62 | 1009.4 |
| 20260906041557 | 82 | 165 | 0.0 | 3.0 | 0.00 | 0.00 | 0.00 | 62 | 1009.4 |
| 20260906041056 | 82 | 165 | 1.0 | 3.0 | 0.00 | 0.00 | 0.00 | 62 | 1009.4 |
| 20260906040555 | 83 | 165 | 0.0 | 2.0 | 0.00 | 0.00 | 0.00 | 61 | 1009.4 |
| 20260906035554 | 83 | 165 | 1.0 | 2.0 | 0.00 | 0.00 | 0.00 | 61 | 1009.3 |
| 20260906035054 | 83 | 165 | 0.0 | 1.0 | 0.00 | 0.00 | 0.00 | 61 | 1009.3 |
| 20260906034554 | 83 | 165 | 0.0 | 1.0 | 0.00 | 0.00 | 0.00 | 60 | 1009.3 |
| 20260906034054 | 83 | 165 | 0.0 | 1.0 | 0.00 | 0.00 | 0.00 | 60 | 1009.3 |
| 20260906033654 | 84 | 165 | 0.0 | 1.0 | 0.00 | 0.00 | 0.00 | 59 | 1009.4 |
| 20260906033054 | 84 | 165 | 0.0 | 1.0 | 0.00 | 0.00 | 0.00 | 59 | 1009.4 |
| 20260906032554 | 84 | 165 | 0.0 | 2.0 | 0.00 | 0.00 | 0.00 | 59 | 1009.4 |
| 20260906032054 | 84 | 165 | 0.0 | 3.0 | 0.00 | 0.00 | 0.00 | 59 | 1009.4 |
| 20260906031554 | 84 | 165 | 2.0 | 3.0 | 0.00 | 0.00 | 0.00 | 58 | 1009.4 |
| 20260906031054 | 84 | 165 | 0.0 | 0.0 | 0.00 | 0.00 | 0.00 | 59 | 1009.4 |
| 20260906030554 | 84 | 165 | 0.0 | 2.0 | 0.00 | 0.00 | 0.00 | 58 | 1009.4 |
| 20260906030057 | 84 | 165 | 0.0 | 2.0 | 0.00 | 0.00 | 0.00 | 58 | 1009.4 |
| 20260906025554 | 84 | 165 | 1.0 | 2.0 | 0.00 | 0.00 | 0.00 | 58 | 1009.4 |
| 20260906025054 | 84 | 165 | 1.0 | 3.0 | 0.00 | 0.00 | 0.00 | 58 | 1009.3 |
| 20260906024559 | 84 | 165 | 1.0 | 3.0 | 0.00 | 0.00 | 0.00 | 58 | 1009.3 |
| 20260906024056 | 84 | 165 | 1.0 | 4.0 | 0.00 | 0.00 | 0.00 | 57 | 1009.3 |
| 20260906023656 | 85 | 165 | 0.0 | 2.0 | 0.00 | 0.00 | 0.00 | 56 | 1009.2 |
| 20260906023052 | 86 | 165 | 0.0 | 2.0 | 0.00 | 0.00 | 0.00 | 55 | 1009.2 |
| 20260906022552 | 86 | 165 | 1.0 | 3.0 | 0.00 | 0.00 | 0.00 | 54 | 1009.1 |
| 20260906022053 | 86 | 165 | 1.0 | 3.0 | 0.00 | 0.00 | 0.00 | 54 | 1009.1 |
| 20260906021552 | 86 | 165 | 1.0 | 2.0 | 0.00 | 0.00 | 0.00 | 53 | 1008.9 |
| 20260906021051 | 86 | 165 | 0.0 | 0.0 | 0.00 | 0.00 | 0.00 | 53 | 1008.7 |
| 20260906020552 | 87 | 165 | 0.0 | 0.0 | 0.00 | 0.00 | 0.00 | 52 | 1008.6 |
| 20260906020052 | 87 | 165 | 0.0 | 0.0 | 0.00 | 0.00 | 0.00 | 52 | 1008.5 |
| 20260906015551 | 87 | 165 | 0.0 | 0.0 | 0.00 | 0.00 | 0.00 | 52 | 1008.6 |
| 20260906015051 | 88 | 165 | 0.0 | 0.0 | 0.00 | 0.00 | 0.00 | 51 | 1008.5 |
| 20260906014632 | 88 | 165 | 0.0 | 0.0 | 0.00 | 0.00 | 0.00 | 51 | 1008.3 |
| 20260906014050 | 88 | 165 | 0.0 | 1.0 | 0.00 | 0.00 | 0.00 | 50 | 1008.2 |
| 20260906013651 | 89 | 165 | 1.0 | 2.0 | 0.00 | 0.00 | 0.00 | 49 | 1008.1 |
| 20260906013059 | 89 | 165 | 0.0 | 2.0 | 0.00 | 0.00 | 0.00 | 49 | 1008.1 |
| 20260906012551 | 89 | 165 | 1.0 | 2.0 | 0.00 | 0.00 | 0.00 | 48 | 1008.0 |
| 20260906012051 | 90 | 165 | 1.0 | 2.0 | 0.00 | 0.00 | 0.00 | 47 | 1008.0 |
| 20260906011558 | 90 | 165 | 0.0 | 1.0 | 0.00 | 0.00 | 0.00 | 47 | 1008.0 |
| 20260906011051 | 90 | 165 | 0.0 | 2.0 | 0.00 | 0.00 | 0.00 | 46 | 1008.0 |
| 20260906010551 | 91 | 165 | 0.0 | 3.0 | 0.00 | 0.00 | 0.00 | 46 | 1007.9 |
| 20260906010054 | 91 | 165 | 2.0 | 5.0 | 0.00 | 0.00 | 0.00 | 45 | 1007.9 |
| 20260906005551 | 91 | 165 | 3.0 | 5.0 | 0.00 | 0.00 | 0.00 | 45 | 1007.8 |
| 20260906005051 | 92 | 165 | 3.0 | 5.0 | 0.00 | 0.00 | 0.00 | 44 | 1007.7 |
| 20260906004558 | 92 | 136 | 1.0 | 3.0 | 0.00 | 0.00 | 0.00 | 44 | 1007.7 |
| 20260906004050 | 92 | 136 | 2.0 | 5.0 | 0.00 | 0.00 | 0.00 | 43 | 1007.7 |
| 20260906003650 | 93 | 135 | 4.0 | 9.0 | 0.00 | 0.00 | 0.00 | 42 | 1007.8 |
| 20260906003059 | 94 | 134 | 5.0 | 9.0 | 0.00 | 0.00 | 0.00 | 42 | 1007.7 |
| 20260906002550 | 94 | 130 | 5.0 | 8.0 | 0.00 | 0.00 | 0.00 | 41 | 1007.7 |
| 20260906002050 | 94 | 141 | 2.0 | 4.0 | 0.00 | 0.00 | 0.00 | 40 | 1007.7 |
| 20260906001550 | 95 | 141 | 2.0 | 5.0 | 0.00 | 0.00 | 0.00 | 40 | 1007.7 |
| 20260906001049 | 95 | 142 | 3.0 | 5.0 | 0.00 | 0.00 | 0.00 | 39 | 1007.7 |
| 20260906000552 | 96 | 144 | 3.0 | 7.0 | 0.00 | 0.00 | 0.00 | 38 | 1007.7 |
| 20260906000048 | 96 | 131 | 5.0 | 8.0 | 0.00 | 0.00 | 0.00 | 37 | 1007.7 |
| 20260905235548 | 97 | 95 | 4.0 | 9.0 | 0.00 | 0.00 | 0.00 | 37 | 1007.7 |
| 20260905235049 | 97 | 115 | 3.0 | 7.0 | 0.00 | 0.00 | 0.00 | 36 | 1007.7 |
| 20260905234551 | 97 | 113 | 4.0 | 8.0 | 0.00 | 0.00 | 0.00 | 36 | 1007.7 |
| 20260905234048 | 97 | 96 | 5.0 | 9.0 | 0.00 | 0.00 | 0.00 | 35 | 1007.7 |
| 20260905233648 | 98 | 86 | 3.0 | 9.0 | 0.00 | 0.00 | 0.00 | 35 | 1007.7 |
| 20260905233049 | 98 | 90 | 3.0 | 10.0 | 0.00 | 0.00 | 0.00 | 35 | 1007.7 |
| 20260905232549 | 98 | 61 | 4.0 | 12.0 | 0.00 | 0.00 | 0.00 | 35 | 1007.7 |
| 20260905232049 | 98 | 80 | 5.0 | 13.0 | 0.00 | 0.00 | 0.00 | 35 | 1007.7 |